Stündliche Wetter Juchipila

Heute, 3 März, Mittwoch

Zeit Temperatur Niederschläge Wind Luftdruck Luftfeuchtigkeit
00:00 +19°C° 0 mm 1 m/S 644 mmHg 35%
01:00 +16°C° 0 mm 0 m/S 644 mmHg 38%
02:00 +15°C° 0 mm 0 m/S 643 mmHg 41%
03:00 +15°C° 0 mm 0 m/S 643 mmHg 42%
04:00 +14°C° 0 mm 0 m/S 643 mmHg 43%
05:00 +14°C° 0 mm 0 m/S 643 mmHg 44%
06:00 +16°C° 0 mm 0 m/S 644 mmHg 38%
07:00 +20°C° 0 mm 1 m/S 645 mmHg 33%
08:00 +23°C° 0 mm 1 m/S 647 mmHg 28%
09:00 +26°C° 0 mm 1 m/S 647 mmHg 23%
10:00 +28°C° 0 mm 1 m/S 648 mmHg 19%
11:00 +31°C° 0 mm 1 m/S 648 mmHg 15%
12:00 +32°C° 0 mm 1 m/S 648 mmHg 14%
13:00 +34°C° 0 mm 2 m/S 647 mmHg 13%
14:00 +35°C° 0 mm 2 m/S 646 mmHg 12%
15:00 +34°C° 0 mm 3 m/S 646 mmHg 13%
16:00 +34°C° 0 mm 4 m/S 645 mmHg 13%
17:00 +33°C° 0 mm 4 m/S 645 mmHg 14%
18:00 +29°C° 0 mm 3 m/S 645 mmHg 17%
19:00 +26°C° 0 mm 3 m/S 645 mmHg 20%
20:00 +23°C° 0 mm 2 m/S 646 mmHg 23%
21:00 +21°C° 0 mm 2 m/S 646 mmHg 25%
22:00 +21°C° 0 mm 1 m/S 646 mmHg 27%
23:00 +20°C° 0 mm 1 m/S 646 mmHg 29%

Morgen, 4 März, Donnerstag

Zeit Temperatur Niederschläge Wind Luftdruck Luftfeuchtigkeit
00:00 +19°C° 0 mm 1 m/S 646 mmHg 32%
01:00 +18°C° 0 mm 1 m/S 646 mmHg 35%
02:00 +15°C° 0 mm 0 m/S 645 mmHg 37%
03:00 +15°C° 0 mm 0 m/S 645 mmHg 39%
04:00 +14°C° 0 mm 0 m/S 645 mmHg 41%
05:00 +15°C° 0 mm 1 m/S 645 mmHg 42%
06:00 +16°C° 0 mm 0 m/S 646 mmHg 37%
07:00 +19°C° 0 mm 0 m/S 647 mmHg 31%
08:00 +21°C° 0 mm 0 m/S 648 mmHg 25%
09:00 +24°C° 0 mm 0 m/S 648 mmHg 21%
10:00 +29°C° 0 mm 1 m/S 648 mmHg 17%
11:00 +32°C° 0 mm 1 m/S 649 mmHg 13%
12:00 +33°C° 0 mm 1 m/S 648 mmHg 13%
13:00 +35°C° 0 mm 2 m/S 647 mmHg 12%
14:00 +36°C° 0 mm 3 m/S 646 mmHg 12%
15:00 +35°C° 0 mm 4 m/S 646 mmHg 12%
16:00 +34°C° 0 mm 4 m/S 646 mmHg 12%
17:00 +34°C° 0 mm 5 m/S 645 mmHg 13%
18:00 +30°C° 0 mm 4 m/S 645 mmHg 16%
19:00 +26°C° 0 mm 3 m/S 645 mmHg 19%
20:00 +23°C° 0 mm 2 m/S 645 mmHg 22%
21:00 +21°C° 0 mm 2 m/S 645 mmHg 23%
22:00 +20°C° 0 mm 2 m/S 645 mmHg 25%
23:00 +20°C° 0 mm 1 m/S 645 mmHg 27%

übermorgen, 5 März, Freitag

Zeit Temperatur Niederschläge Wind Luftdruck Luftfeuchtigkeit
00:00 +19°C° 0 mm 1 m/S 645 mmHg 28%
01:00 +19°C° 0 mm 1 m/S 644 mmHg 30%
02:00 +18°C° 0 mm 1 m/S 644 mmHg 31%
03:00 +18°C° 0 mm 1 m/S 644 mmHg 32%
04:00 +15°C° 0 mm 0 m/S 644 mmHg 33%
05:00 +15°C° 0 mm 0 m/S 644 mmHg 34%
06:00 +19°C° 0 mm 1 m/S 644 mmHg 31%
07:00 +21°C° 0 mm 1 m/S 645 mmHg 27%
08:00 +23°C° 0 mm 1 m/S 646 mmHg 24%
09:00 +26°C° 0 mm 1 m/S 647 mmHg 20%
10:00 +30°C° 0 mm 1 m/S 647 mmHg 15%
11:00 +33°C° 0 mm 1 m/S 647 mmHg 11%
12:00 +34°C° 0 mm 1 m/S 646 mmHg 10%
13:00 +34°C° 0 mm 1 m/S 646 mmHg 9%
14:00 +36°C° 0 mm 2 m/S 645 mmHg 8%
15:00 +36°C° 0 mm 2 m/S 644 mmHg 8%
16:00 +35°C° 0 mm 3 m/S 644 mmHg 8%
17:00 +35°C° 0 mm 4 m/S 644 mmHg 8%
18:00 +30°C° 0 mm 3 m/S 644 mmHg 10%
19:00 +27°C° 0 mm 2 m/S 644 mmHg 13%
20:00 +24°C° 0 mm 2 m/S 643 mmHg 15%
21:00 +23°C° 0 mm 2 m/S 644 mmHg 17%
22:00 +21°C° 0 mm 2 m/S 644 mmHg 18%
23:00 +20°C° 0 mm 2 m/S 644 mmHg 20%

6 März, Samstag

Zeit Temperatur Niederschläge Wind Luftdruck Luftfeuchtigkeit
00:00 +19°C° 0 mm 2 m/S 644 mmHg 23%
01:00 +18°C° 0 mm 2 m/S 643 mmHg 26%
02:00 +17°C° 0 mm 2 m/S 643 mmHg 29%
03:00 +16°C° 0 mm 2 m/S 643 mmHg 38%
04:00 +16°C° 0 mm 2 m/S 643 mmHg 48%
05:00 +15°C° 0 mm 2 m/S 643 mmHg 57%
06:00 +17°C° 0 mm 2 m/S 644 mmHg 59%
07:00 +18°C° 0 mm 2 m/S 645 mmHg 60%
08:00 +20°C° 0 mm 2 m/S 645 mmHg 61%
09:00 +24°C° 0 mm 2 m/S 646 mmHg 51%
10:00 +27°C° 0 mm 1 m/S 646 mmHg 41%
11:00 +30°C° 0 mm 1 m/S 646 mmHg 31%
12:00 +31°C° 0 mm 1 m/S 646 mmHg 26%
13:00 +33°C° 0 mm 1 m/S 645 mmHg 21%
14:00 +35°C° 0 mm 2 m/S 644 mmHg 16%
15:00 +35°C° 0 mm 3 m/S 644 mmHg 15%
16:00 +34°C° 0 mm 3 m/S 644 mmHg 15%
17:00 +33°C° 0 mm 4 m/S 643 mmHg 14%
18:00 +30°C° 0 mm 3 m/S 644 mmHg 17%
19:00 +27°C° 0 mm 3 m/S 644 mmHg 20%
20:00 +24°C° 0 mm 2 m/S 644 mmHg 23%
21:00 +23°C° 0 mm 2 m/S 644 mmHg 25%
22:00 +22°C° 0 mm 1 m/S 644 mmHg 27%
23:00 +21°C° 0 mm 1 m/S 644 mmHg 29%

7 März, Sonntag

Zeit Temperatur Niederschläge Wind Luftdruck Luftfeuchtigkeit
00:00 +19°C° 0 mm 1 m/S 644 mmHg 32%
01:00 +18°C° 0 mm 1 m/S 643 mmHg 36%
02:00 +15°C° 0 mm 0 m/S 643 mmHg 40%
03:00 +14°C° 0 mm 0 m/S 643 mmHg 42%
04:00 +14°C° 0 mm 0 m/S 643 mmHg 45%
05:00 +13°C° 0 mm 0 m/S 643 mmHg 47%
06:00 +15°C° 0 mm 0 m/S 644 mmHg 43%
07:00 +18°C° 0 mm 0 m/S 645 mmHg 38%
08:00 +22°C° 0 mm 1 m/S 646 mmHg 33%
09:00 +25°C° 0 mm 1 m/S 646 mmHg 28%
10:00 +28°C° 0 mm 2 m/S 647 mmHg 22%
11:00 +31°C° 0 mm 3 m/S 647 mmHg 17%
12:00 +33°C° 0 mm 4 m/S 647 mmHg 15%
13:00 +34°C° 0 mm 5 m/S 646 mmHg 13%
14:00 +35°C° 0 mm 6 m/S 646 mmHg 11%
15:00 +34°C° 0 mm 6 m/S 645 mmHg 11%
16:00 +33°C° 0 mm 6 m/S 645 mmHg 10%
17:00 +33°C° 0 mm 7 m/S 645 mmHg 10%
18:00 +28°C° 0 mm 5 m/S 645 mmHg 14%
19:00 +25°C° 0 mm 4 m/S 645 mmHg 18%
20:00 +21°C° 0 mm 2 m/S 645 mmHg 22%
21:00 +20°C° 0 mm 2 m/S 645 mmHg 24%
22:00 +20°C° 0 mm 1 m/S 645 mmHg 26%
23:00 +19°C° 0 mm 1 m/S 645 mmHg 28%

8 März, Montag

Zeit Temperatur Niederschläge Wind Luftdruck Luftfeuchtigkeit
00:00 +18°C° 0 mm 1 m/S 645 mmHg 31%
01:00 +16°C° 0 mm 1 m/S 644 mmHg 33%
02:00 +15°C° 0 mm 1 m/S 644 mmHg 36%
03:00 +14°C° 0 mm 1 m/S 644 mmHg 37%
04:00 +13°C° 0 mm 0 m/S 644 mmHg 38%
05:00 +12°C° 0 mm 0 m/S 644 mmHg 39%
06:00 +15°C° 0 mm 0 m/S 645 mmHg 33%
07:00 +18°C° 0 mm 0 m/S 646 mmHg 27%
08:00 +21°C° 0 mm 0 m/S 648 mmHg 22%
09:00 +25°C° 0 mm 1 m/S 648 mmHg 18%
10:00 +28°C° 0 mm 1 m/S 648 mmHg 15%
11:00 +31°C° 0 mm 2 m/S 649 mmHg 11%
12:00 +33°C° 0 mm 3 m/S 648 mmHg 10%
13:00 +34°C° 0 mm 3 m/S 647 mmHg 9%
14:00 +35°C° 0 mm 4 m/S 647 mmHg 9%
15:00 +34°C° 0 mm 5 m/S 646 mmHg 9%
16:00 +33°C° 0 mm 5 m/S 646 mmHg 9%
17:00 +33°C° 0 mm 6 m/S 646 mmHg 10%
18:00 +28°C° 0 mm 4 m/S 646 mmHg 14%
19:00 +25°C° 0 mm 3 m/S 646 mmHg 19%
20:00 +21°C° 0 mm 2 m/S 646 mmHg 24%
21:00 +20°C° 0 mm 2 m/S 646 mmHg 26%
22:00 +20°C° 0 mm 1 m/S 646 mmHg 28%
23:00 +19°C° 0 mm 1 m/S 646 mmHg 31%
Mehr zeigen

Wir brauchen deine Erlaubnis

Meteoprog und unser Service Anbieter werden persönliche Daten aufbewahren, so wie Cookies, Geräte Bezeichnung oder ähnliche Technologien von deinem Gerät und Prozess, so wie Persönliche Daten Inhalte und Werbungen, genauso wie social Media und den Verkehr zu analysieren.

  • Aufbewahrung und/oder Zugang zu deiner Geräte Informationen.

    Cookies, Geräte Bezeichnung oder andere Informationen, können aufbewahrt oder Zugang zu deinem Gerät erhalten, für den Grund, der oben angegeben wird.

  • Personalisierte Werbung und Inhalte, Messungen, Einblick in das Publikum und Produkt Entwicklung.

    Werbungen und Inhalte können personalisiert werden, basierend auf ein Profil. Mehr Daten können besser personalisierte Werbungen und Inhalte hinzufügen. Werbung und Inhalte können gezeigt und gemessen werden. Einblicke über das Publikum, welche die Werbung gesehen haben und den Inhalt, können abgeleitet werden. So wie Daten können genutzt werden, um es zu verbessern oder die Benutzer Erfahrung zu verbessern das System und die Software.

Wenn du “Ich stimme zu” klickst, erlaubst du uns, die Cookies zu benutzen die Geräte Bezeichnung, den Web oder ähnliche Technologien zu benutzen. Deine Settings, können in deinem Gerät bei deinem Browser geändert werden.

Für den bestimmten Zweck, berechtigten Interessen beruhen darauf, mehr als auf den Inhalt. Du kannst mehr darüber in unseren Privaten und Cookie Politik lesen.